When you browse on this site, cookies collect data to enhance your experience and personalize the content and advertising you see.
Visit our Privacy Policy to learn more. By continuing to use the site, you agree to this use of cookies and data.
  • In Lithuania
  • List of Countries
  • For 7 days
  • Water Temperature
  • Satellite Maps
  • Weather Map
  • Weather Widgets
  • user-avatar
    Login

    Hourly Weather Batina

    Today, 10 December, Monday

    Time Temperature Precipitation Wind Pressure Humidity
    00:00 +9°C° 0 mm 1 mps 676 mmHg 58%
    01:00 +9°C° 0 mm 1 mps 675 mmHg 58%
    02:00 +7°C° 0 mm 2 mps 675 mmHg 59%
    03:00 +7°C° 0 mm 2 mps 675 mmHg 59%
    04:00 +7°C° 0 mm 2 mps 675 mmHg 62%
    05:00 +6°C° 0 mm 2 mps 675 mmHg 64%
    06:00 +6°C° 0 mm 2 mps 675 mmHg 62%
    07:00 +7°C° 0 mm 2 mps 676 mmHg 59%
    08:00 +9°C° 0 mm 2 mps 676 mmHg 55%
    09:00 +10°C° 0 mm 2 mps 677 mmHg 52%
    10:00 +12°C° 0 mm 2 mps 677 mmHg 51%
    11:00 +13°C° 0 mm 2 mps 677 mmHg 50%
    12:00 +14°C° 0 mm 2 mps 677 mmHg 44%
    13:00 +14°C° 0 mm 2 mps 677 mmHg 45%
    14:00 +14°C° 0 mm 2 mps 677 mmHg 46%
    15:00 +14°C° 0 mm 2 mps 676 mmHg 46%
    16:00 +13°C° 0 mm 2 mps 676 mmHg 54%
    17:00 +10°C° 0 mm 2 mps 676 mmHg 62%
    18:00 +9°C° 0 mm 2 mps 676 mmHg 70%
    19:00 +8°C° 0 mm 2 mps 675 mmHg 73%
    20:00 +9°C° 0 mm 1 mps 675 mmHg 76%
    21:00 +8°C° 0 mm 1 mps 675 mmHg 79%
    22:00 +8°C° 0 mm 1 mps 675 mmHg 78%
    23:00 +7°C° 0 mm 1 mps 675 mmHg 77%

    Tomorrow, 11 December, Tuesday

    Time Temperature Precipitation Wind Pressure Humidity
    00:00 +7°C° 0 mm 1 mps 674 mmHg 77%
    01:00 +5°C° 0 mm 0 mps 674 mmHg 76%
    02:00 +5°C° 0 mm 0 mps 674 mmHg 76%
    03:00 +5°C° 0 mm 0 mps 673 mmHg 75%
    04:00 +5°C° 0 mm 0 mps 673 mmHg 74%
    05:00 +4°C° 0 mm 0 mps 673 mmHg 74%
    06:00 +4°C° 0 mm 0 mps 673 mmHg 73%
    07:00 +7°C° 0 mm 1 mps 674 mmHg 66%
    08:00 +9°C° 0 mm 1 mps 674 mmHg 58%
    09:00 +11°C° 0 mm 1 mps 675 mmHg 51%
    10:00 +12°C° 0 mm 1 mps 675 mmHg 46%
    11:00 +13°C° 0 mm 2 mps 675 mmHg 41%
    12:00 +13°C° 0 mm 3 mps 675 mmHg 37%
    13:00 +13°C° 0 mm 3 mps 674 mmHg 36%
    14:00 +14°C° 0 mm 3 mps 674 mmHg 36%
    15:00 +14°C° 0 mm 3 mps 674 mmHg 36%
    16:00 +13°C° 0 mm 2 mps 673 mmHg 42%
    17:00 +10°C° 0 mm 2 mps 673 mmHg 49%
    18:00 +10°C° 0 mm 1 mps 673 mmHg 55%
    19:00 +9°C° 0 mm 1 mps 673 mmHg 57%
    20:00 +9°C° 0 mm 1 mps 673 mmHg 58%
    21:00 +8°C° 0 mm 1 mps 673 mmHg 59%
    22:00 +8°C° 0 mm 1 mps 672 mmHg 59%
    23:00 +8°C° 0 mm 1 mps 672 mmHg 59%

    Day after tomorrow, 12 December, Wednesday

    Time Temperature Precipitation Wind Pressure Humidity
    00:00 +8°C° 0 mm 1 mps 672 mmHg 59%
    01:00 +7°C° 0 mm 1 mps 672 mmHg 59%
    02:00 +7°C° 0 mm 1 mps 672 mmHg 58%
    03:00 +7°C° 0 mm 1 mps 671 mmHg 58%
    04:00 +7°C° 0 mm 1 mps 671 mmHg 58%
    05:00 +6°C° 0 mm 1 mps 671 mmHg 58%
    06:00 +6°C° 0 mm 1 mps 671 mmHg 58%
    07:00 +8°C° 0 mm 1 mps 672 mmHg 51%
    08:00 +10°C° 0 mm 1 mps 673 mmHg 44%
    09:00 +12°C° 0 mm 1 mps 674 mmHg 38%
    10:00 +13°C° 0 mm 1 mps 674 mmHg 35%
    11:00 +14°C° 0 mm 2 mps 673 mmHg 31%
    12:00 +15°C° 0 mm 2 mps 673 mmHg 28%
    13:00 +15°C° 0 mm 2 mps 673 mmHg 28%
    14:00 +15°C° 0 mm 2 mps 673 mmHg 28%
    15:00 +15°C° 0 mm 2 mps 672 mmHg 29%
    16:00 +13°C° 0 mm 2 mps 672 mmHg 34%
    17:00 +12°C° 0 mm 2 mps 672 mmHg 39%
    18:00 +10°C° 0 mm 1 mps 671 mmHg 45%
    19:00 +10°C° 0 mm 1 mps 671 mmHg 45%
    20:00 +9°C° 0 mm 1 mps 671 mmHg 46%
    21:00 +9°C° 0 mm 1 mps 671 mmHg 46%
    22:00 +8°C° 0 mm 1 mps 671 mmHg 46%
    23:00 +7°C° 0 mm 2 mps 670 mmHg 46%

    13 December, Thursday

    Time Temperature Precipitation Wind Pressure Humidity
    00:00 +7°C° 0 mm 2 mps 670 mmHg 46%
    01:00 +7°C° 0 mm 2 mps 670 mmHg 47%
    02:00 +6°C° 0 mm 2 mps 669 mmHg 48%
    03:00 +6°C° 0 mm 2 mps 669 mmHg 49%
    04:00 +6°C° 0 mm 2 mps 669 mmHg 50%
    05:00 +6°C° 0 mm 2 mps 668 mmHg 52%
    06:00 +5°C° 0 mm 2 mps 668 mmHg 53%
    07:00 +7°C° 0 mm 2 mps 668 mmHg 49%
    08:00 +9°C° 0 mm 2 mps 669 mmHg 45%
    09:00 +10°C° 0 mm 2 mps 669 mmHg 40%
    10:00 +11°C° 0 mm 3 mps 669 mmHg 37%
    11:00 +12°C° 0 mm 4 mps 669 mmHg 34%
    12:00 +13°C° 0 mm 4 mps 668 mmHg 30%
    13:00 +13°C° 0 mm 4 mps 668 mmHg 31%
    14:00 +13°C° 0 mm 4 mps 667 mmHg 32%
    15:00 +13°C° 0 mm 5 mps 667 mmHg 33%
    16:00 +11°C° 0 mm 4 mps 666 mmHg 38%
    17:00 +10°C° 0 mm 3 mps 666 mmHg 43%
    18:00 +9°C° 0 mm 3 mps 665 mmHg 48%
    19:00 +8°C° 0 mm 3 mps 665 mmHg 49%
    20:00 +8°C° 0 mm 3 mps 665 mmHg 50%
    21:00 +7°C° 0 mm 3 mps 665 mmHg 51%
    22:00 +7°C° 0 mm 3 mps 664 mmHg 52%
    23:00 +7°C° 0 mm 3 mps 664 mmHg 53%

    14 December, Friday

    Time Temperature Precipitation Wind Pressure Humidity
    00:00 +7°C° 0 mm 3 mps 664 mmHg 55%
    01:00 +5°C° 0 mm 3 mps 663 mmHg 59%
    02:00 +5°C° 0 mm 3 mps 663 mmHg 63%
    03:00 +5°C° 0 mm 2 mps 663 mmHg 67%
    04:00 +5°C° 0.2 mm 2 mps 662 mmHg 69%
    05:00 +5°C° 0.2 mm 2 mps 662 mmHg 70%
    06:00 +6°C° 0.2 mm 1 mps 662 mmHg 72%
    07:00 +6°C° 0.1 mm 1 mps 662 mmHg 71%
    08:00 +6°C° 0.1 mm 1 mps 663 mmHg 70%
    09:00 +7°C° 0.1 mm 1 mps 663 mmHg 69%
    10:00 +7°C° 0.3 mm 1 mps 663 mmHg 67%
    11:00 +6°C° 0.3 mm 2 mps 663 mmHg 66%
    12:00 +7°C° 0.3 mm 3 mps 663 mmHg 65%
    13:00 +7°C° 0.6 mm 3 mps 663 mmHg 67%
    14:00 +6°C° 0.6 mm 4 mps 663 mmHg 69%
    15:00 +6°C° 0.6 mm 5 mps 663 mmHg 71%
    16:00 +6°C° 0.7 mm 5 mps 664 mmHg 75%
    17:00 +5°C° 0.7 mm 6 mps 664 mmHg 79%
    18:00 +4°C° 0.7 mm 7 mps 665 mmHg 83%
    19:00 +4°C° 0.3 mm 7 mps 665 mmHg 84%
    20:00 +4°C° 0.3 mm 7 mps 666 mmHg 84%
    21:00 +4°C° 0.3 mm 6 mps 666 mmHg 85%
    22:00 +4°C° 0.6 mm 6 mps 667 mmHg 85%
    23:00 +4°C° 0.6 mm 6 mps 667 mmHg 85%

    15 December, Saturday

    Time Temperature Precipitation Wind Pressure Humidity
    00:00 +5°C° 0.6 mm 6 mps 667 mmHg 85%
    01:00 +5°C° 0.2 mm 6 mps 667 mmHg 86%
    02:00 +5°C° 0.2 mm 6 mps 668 mmHg 87%
    03:00 +5°C° 0.2 mm 7 mps 668 mmHg 87%
    04:00 +5°C° 0.1 mm 7 mps 669 mmHg 87%
    05:00 +5°C° 0.1 mm 6 mps 669 mmHg 87%
    06:00 +4°C° 0.1 mm 6 mps 670 mmHg 87%
    07:00 +5°C° 0.2 mm 7 mps 670 mmHg 86%
    08:00 +5°C° 0.2 mm 8 mps 671 mmHg 84%
    09:00 +6°C° 0.2 mm 8 mps 672 mmHg 82%
    10:00 +6°C° 0.1 mm 9 mps 672 mmHg 79%
    11:00 +6°C° 0.1 mm 10 mps 672 mmHg 77%
    12:00 +6°C° 0.1 mm 11 mps 673 mmHg 74%
    13:00 +6°C° 0.1 mm 10 mps 673 mmHg 73%
    14:00 +5°C° 0.1 mm 10 mps 673 mmHg 71%
    15:00 +5°C° 0.1 mm 10 mps 673 mmHg 69%
    16:00 +5°C° 0 mm 9 mps 674 mmHg 72%
    17:00 +5°C° 0 mm 7 mps 674 mmHg 75%
    18:00 +4°C° 0 mm 6 mps 674 mmHg 79%
    19:00 +4°C° 0 mm 6 mps 675 mmHg 80%
    20:00 +5°C° 0 mm 5 mps 675 mmHg 82%
    21:00 +5°C° 0 mm 4 mps 675 mmHg 83%
    22:00 +5°C° 0 mm 4 mps 675 mmHg 83%
    23:00 +5°C° 0 mm 3 mps 675 mmHg 84%
    Show more